Location: Arrien
(43.3167°N, 0.1500°W)
Time: 04:04:27
(UTC+00:00)

Cosmos 1356 - Pass Details

Date: 15 October 2021
Orbit: 433 x 436 km, 81.1° (Epoch: 02 December)

Event Time Altitude Azimuth Distance (km) Brightness Sun altitude
Rises 18:21:20 0° 346° (NNW) 2,435 7.3 -12.4°
Reaches altitude 10° 18:23:25 10° 342° (NNW) 1,562 6.4 -12.8°
Maximum altitude 18:26:46 59° 263° (W) 515 4.0 -13.4°
Drops below altitude 10° 18:30:06 10° 183° (S) 1,550 6.1 -14.0°
Sets 18:32:09 0° 179° (S) 2,415 7.1 -14.4°
